sat.trackr.live / text

‹ back to catalog

STARLINK-11521 [DTC]

NORAD 62597 · 2025-008L

PAYLOAD ACTIVE UNKNOWN

§ Identity

Operator
Country
US
Launch date
2025-01-13
Launch site
AFETR
Launch vehicle
Mass (kg)
RCS (m²)

Purposes: comms

External: N2YO · Heavens-Above · Gunter

§ Orbital elements

Epoch: 2026-09-21T15:18:03.893184Z

Period
91.67 min
Inclination
43.0022°
Eccentricity
0.0002369
Mean motion
15.70829808 rev/d
Perigee alt
354.9 km
Apogee alt
358.1 km
Semi-major
6,734.7 km
B*
1.1563e-3
RAAN
24.8834°
Arg perigee
284.3508°
Mean anomaly
75.7096°
Rev number
9,810

§ Raw data

STARLINK-11521 [DTC]1 62597U 25008L   26264.63754506  .00150576  00000+0  11563-2 0  99912 62597  43.0022  24.8834 0002369 284.3508  75.7096 15.70829808 98101

JSON: /api/v1/satellites/62597 · /tle

For live sub-satellite position, see the globe view (requires WebGL).

§ Visibility from observer

Set your observer location to see the next 7 days of passes ≥ 10°. The values pass through the URL so the page stays shareable.

No JS? Fill the form by hand. The geolocation button needs JavaScript.